Flag for U.S.A. Weather past 2 weeks in Grand Rapids, Michigan, U.S.A.

Now
21 °F

Clear.


Feels Like: 11 °F
Forecast: 21 / 44 °F
Wind: 9 mph from South

Location: Kent County International Airport

Current Time: Mar 29, 2015 at 5:40:01 AM

Latest Report: Mar 29, 2015 at 4:53 AM


Visibility: 10 mi

Pressure: 30.24 "Hg

Humidity: 60%

Dew point: 9 °F

Location of Grand RapidsLocation

Historic Weather in Grand Rapids — Graph

°F

Grand Rapids temperature yesterday

Maximum temperature yesterday: 36 °F (at 3:53 PM)
Minimum temperature yesterday: 13 °F (at 4:53 AM)
Average temperature yesterday: 23 °F

Past Weeks' High & Low Weather Summary

 TemperatureHumidityPressure
High65 °F (Mar 16, 3:53 PM)96% (Mar 25, 9:53 AM)30.39 "Hg (Mar 25, 9:53 AM)
Low13 °F (Mar 28, 4:53 AM)25% (Mar 24, 4:53 PM)29.70 "Hg (Mar 16, 6:53 PM)
Average35 °F58%30.14 "Hg
* Reported Mar 14 3:53 AM — Mar 29 3:53 AM, Grand Rapids, Weather by CustomWeather, © 2015

Note: Actual official high and low records may vary slightly from our data, if they occured in-between our weather recording intervals... More about our weather records

Advertising

Grand Rapids weather history for previous 24 hours

 ConditionsComfort  
Time TempWeatherWind HumidityBarometerVisibility
3:53 AM
Sun, Mar 29
21 °FClear.9 mph60%30.26 "Hg10 mi
2:53 AM18 °FClear.8 mph68%30.27 "Hg10 mi
1:53 AM20 °FClear.10 mph65%30.29 "Hg10 mi
12:53 AM17 °FClear.3 mph70%30.31 "Hg10 mi
11:53 PM
Sat, Mar 28
21 °FClear.3 mph62%30.32 "Hg10 mi
10:53 PM23 °FClear.6 mph57%30.33 "Hg10 mi
9:53 PM24 °FClear.6 mph55%30.33 "Hg10 mi
8:53 PM27 °FSunny.8 mph49%30.32 "Hg10 mi
7:53 PM30 °FSunny.10 mph41%30.32 "Hg10 mi
6:53 PM34 °FSunny.12 mph35%30.31 "Hg10 mi
5:53 PM36 °FSunny.5 mph26%30.30 "Hg10 mi
4:53 PM35 °FSunny.5 mph25%30.30 "Hg10 mi
3:53 PM36 °FSunny.8 mph26%30.31 "Hg10 mi
2:53 PM32 °FSunny.6 mph29%30.33 "Hg10 mi
1:53 PM30 °FSunny.5 mph31%30.35 "Hg10 mi
12:53 PM29 °FSunny.6 mph34%30.36 "Hg10 mi
11:53 AM28 °FPassing clouds.3 mph35%30.36 "Hg10 mi
10:53 AM24 °FSunny.No wind38%30.37 "Hg10 mi
9:53 AM22 °FSunny.3 mph48%30.35 "Hg10 mi
8:53 AM18 °FSunny.No wind59%30.34 "Hg10 mi
7:53 AM14 °FClear.No wind64%30.32 "Hg10 mi
6:53 AM13 °FClear.3 mph64%30.29 "Hg10 mi
5:53 AM13 °FClear.3 mph64%30.26 "Hg10 mi
Weather by CustomWeather, © 2015

See weather overviewHow to use our weather pages